CAPE
573 528 200 107 42 12 7 50 66 0 0 25 1 1 0 0 0 0 0 0 0 0 8 30 197 1060 1304 1328 1436 1225 1269 1248 1233 1382 1527 1589 1735 1781 1740 1736 1719 1648 1641 1735 1700 1460 1334 1278 1282
612 71 15 0 0 0 16 73 51 53 104 45 50 31 16 2 0 0 0 0 0 3 61 143 538 1018 1281 1415 1460 1273 1622 1472 1465 1513 1649 1678 1767 1700 1748 1730 1655 1629 1620 1599 1649 1912 1731 1413 1092
248 140 36 10 0 0 17 35 127 166 106 72 77 16 4 1 2 0 2 0 0 24 142 571 839 1162 1215 1439 1466 1796 1869 1592 1486 1620 1625 1675 1651 1627 1604 1587 1647 1682 1684 1700 1722 1673 1679 1167 671
61 14 5 73 0 1 37 140 147 119 148 44 22 4 11 7 2 19 6 0 0 73 307 992 1135 1191 1185 1429 1580 1684 1534 1560 1532 1482 1482 1531 1537 1533 1590 1656 1716 1690 1696 1679 1705 1538 1546 1020 588
10 14 41 34 55 3 55 125 342 176 224 135 17 4 4 69 52 16 64 57 30 123 521 1120 1240 1348 1251 1315 1460 1377 1508 1756 1612 1521 1436 1537 1491 1452 1469 1503 1613 1564 1602 1651 1321 1401 1325 1125 1190
79 108 18 0 10 87 36 23 446 411 211 70 29 31 71 117 31 76 82 66 85 179 831 1079 1276 1306 1396 1255 1306 1351 1288 1362 1599 1552 1424 1608 1637 1400 1419 1442 1509 1577 1629 1547 1207 1140 915 625 1072
160 0 1 1 64 197 217 51 410 354 192 51 41 51 110 86 92 48 74 151 164 269 764 958 1138 1240 1396 1367 1362 1337 1213 1239 1529 1578 1421 1424 1724 1345 1234 1183 1276 1238 1315 1229 1018 905 890 633 679
279 0 4 6 189 213 407 327 428 306 203 132 59 24 32 128 122 122 192 252 282 408 532 778 836 859 1211 1357 1279 1299 1266 1248 1518 1388 1308 1500 1608 1436 1366 1049 993 1237 896 777 803 865 967 959 625
29 66 0 0 16 68 396 390 368 375 261 116 179 116 102 189 206 211 272 324 362 467 453 626 694 794 1110 1226 1232 1441 1477 1423 1504 1425 1178 1237 1299 1210 1157 1264 1102 1607 1293 645 668 808 963 688 759
385 52 0 0 0 152 394 392 369 391 212 267 301 166 225 229 273 307 353 389 305 350 516 687 685 783 995 1095 1239 1458 1498 1510 1378 1127 881 1123 764 744 820 1053 960 578 1033 853 864 886 847 804 602
191 13 0 0 0 210 403 411 490 358 213 244 119 142 255 333 348 352 431 401 245 315 517 778 870 977 914 773 1018 1229 1165 1174 1021 786 560 756 565 867 1001 584 281 0 354 417 578 599 791 724 311
0 0 1 0 0 252 418 485 564 287 156 311 84 140 225 390 418 363 432 407 360 333 388 650 849 837 731 716 830 863 764 699 460 303 434 371 657 435 388 0 50 68 295 300 340 510 572 682 453
0 0 0 0 0 28 456 625 589 411 536 353 240 178 232 374 436 395 441 436 510 335 340 474 698 634 622 430 405 501 290 344 126 138 266 285 398 506 233 34 363 331 442 421 454 575 753 836 255
0 0 0 0 0 82 486 705 700 557 586 452 266 278 346 345 398 440 446 451 534 440 437 485 501 412 443 239 109 248 314 151 51 193 512 679 785 647 163 28 311 490 553 572 674 756 555 96 29
0 0 0 0 0 32 212 541 565 665 672 541 390 391 400 370 396 453 437 431 543 639 653 426 364 374 311 105 60 78 118 182 117 291 519 611 815 645 279 161 508 662 595 764 781 435 114 11 9
0 0 0 0 0 0 5 18 465 643 723 609 549 509 458 458 447 427 440 438 537 591 670 542 625 410 419 390 503 409 253 511 470 399 489 750 923 699 513 607 623 686 562 800 497 459 252 48 2
0 0 0 0 0 0 0 0 205 600 720 627 640 633 590 528 545 434 418 406 386 484 622 665 803 683 608 721 910 740 391 684 899 853 766 848 927 836 765 846 752 502 584 526 404 265 182 0 0
0 0 0 0 0 0 0 0 308 567 667 619 633 626 668 577 545 503 386 373 414 419 507 579 758 844 730 704 935 819 962 821 574 581 733 822 934 934 849 792 572 470 628 497 358 202 0 0 0
0 0 0 0 0 0 0 0 162 483 691 720 727 693 729 625 584 545 367 273 342 429 474 525 611 750 789 732 828 799 999 762 654 779 863 962 992 1013 914 758 624 568 539 584 278 70 0 0 0
0 0 0 0 0 0 0 0 22 378 481 588 698 730 730 667 657 618 436 341 158 322 587 584 574 706 711 745 807 834 790 766 646 571 860 811 938 1008 949 739 638 707 743 589 197 36 0 0 0
0 0 0 0 0 0 0 0 0 403 513 581 563 545 626 554 499 631 496 409 216 287 572 678 649 739 632 600 650 632 631 585 626 622 627 819 846 936 898 653 629 707 791 620 260 40 0 0 0
0 0 0 0 0 0 0 0 0 17 428 464 491 481 429 370 361 439 532 321 260 301 458 666 754 766 618 518 479 578 632 357 441 583 566 1037 891 768 710 769 787 716 675 417 255 19 0 0 10
0 0 0 0 0 0 0 0 0 0 0 60 185 260 315 295 247 269 356 318 242 217 455 678 763 767 679 497 548 621 555 413 455 498 592 876 945 898 817 799 866 525 320 442 190 33 0 0 0
0 0 0 0 0 0 0 0 0 0 0 0 0 7 60 134 176 212 236 291 295 265 415 593 657 728 753 607 676 666 619 608 597 355 543 822 892 1013 1017 967 857 549 309 209 126 20 0 0 0
0 0 0 0 0 0 0 0 0 0 0 0 0 0 0 3 65 81 116 197 278 372 520 555 504 699 817 786 808 789 771 678 626 601 642 626 811 953 1193 1067 950 716 411 214 56 0 0 0 0
0 0 0 0 0 0 0 0 0 0 0 0 0 0 0 0 4 16 43 57 208 246 445 509 498 589 903 971 922 919 878 772 735 714 671 542 792 1002 1204 1159 1032 859 492 154 29 0 0 0 0
0 0 0 0 0 0 0 0 0 0 0 0 0 0 0 0 0 5 21 7 80 169 215 498 509 472 775 976 1010 950 960 936 850 793 766 754 713 1096 1188 1093 1152 929 684 171 34 1 0 0 0
0 0 0 0 0 0 0 0 0 0 0 0 0 0 0 0 0 2 23 23 20 87 141 369 557 531 502 776 986 1002 938 981 931 830 792 772 754 963 1000 1099 1159 857 584 254 73 1 0 0 0
0 0 0 0 0 0 0 0 0 0 0 0 0 0 0 0 0 0 25 30 27 49 66 284 580 610 586 662 846 929 1001 1036 991 903 901 783 870 939 953 983 1163 764 560 339 115 8 0 0 0
0 0 0 0 0 0 0 0 0 0 0 0 0 0 0 0 0 0 8 18 56 59 72 262 502 700 667 761 883 879 863 996 1111 965 953 903 1047 1030 1127 1050 1005 789 625 488 282 101 38 0 0
CIN
-97 -41 -45 -8 -2 -26 -23 -11 -33 -4 0 -47 -17 -8 0 0 0 0 0 0 0 0 -15 -15 -17 0 0 -1 0 -11 -22 -37 -37 -24 -20 -13 -4 0 0 0 0 0 0 0 0 -1 -3 -3 -1
-87 -194 -186 0 0 -3 -32 -61 -35 -45 -61 -58 -52 -91 -82 -65 0 0 0 0 0 -11 -34 -15 -3 -1 0 0 -1 -14 -9 -25 -21 -21 -12 -5 0 -1 0 0 0 0 0 0 -3 0 0 -1 -10
-134 -166 -128 -92 -2 0 -52 -73 -39 -43 -34 -37 -70 -128 -177 0 0 0 -214 0 0 -99 -21 -3 -2 -1 0 0 0 0 -3 -15 -21 -13 -6 -2 -3 0 0 0 0 0 0 -1 -1 -1 -1 -9 -10
-292 -280 -91 -52 0 -19 -99 -112 -103 -88 -45 -89 -126 -134 -139 -163 -210 -204 -190 0 0 -80 -12 0 0 0 0 0 0 -1 -12 -9 -12 -8 -13 -12 -16 -6 -1 -1 0 -1 0 0 0 -7 -4 -7 -26
-342 -230 -67 -76 -43 -23 -127 -103 -92 -108 -63 -96 -173 -52 -211 -103 -168 -212 -153 -141 -140 -77 -6 0 0 0 0 0 0 -8 -3 -3 -11 -14 -18 -18 -10 -3 -12 -10 -5 -9 -10 -7 -18 -16 -11 -9 -13
-198 -163 -48 -13 -25 -56 -112 -222 -95 -71 -99 -153 -199 -218 -122 -118 -203 -155 -152 -149 -121 -91 -2 0 0 -1 0 -1 -3 -4 -14 -26 -15 -15 -19 -9 -1 -7 -11 -10 -10 -10 -14 -16 -27 -29 -16 -36 -20
-145 0 -31 -18 -64 -75 -90 -147 -107 -124 -128 -178 -221 -206 -162 -153 -136 -173 -156 -123 -98 -73 -7 0 0 0 0 0 -2 -5 -20 -31 -17 -11 -18 -16 -2 -12 -21 -20 -19 -25 -34 -37 -38 -36 -29 -27 -23
-123 -1 -48 -55 -50 -38 -91 -126 -135 -115 -138 -191 -229 -225 -263 -198 -177 -136 -99 -83 -65 -47 -40 -17 -8 -1 0 0 -4 -6 -17 -26 -16 -24 -28 -19 -11 -11 -16 -31 -32 -19 -49 -54 -42 -36 -27 -19 -14
-237 -120 0 0 -54 -75 -83 -118 -122 -106 -177 -190 -166 -195 -231 -191 -154 -110 -75 -52 -35 -31 -51 -36 -29 -17 -5 -4 -8 -5 -10 -17 -16 -24 -32 -37 -38 -37 -42 -33 -28 -16 -29 -48 -36 -35 -20 -18 -10
-91 -118 0 0 0 -64 -90 -117 -163 -159 -192 -150 -161 -246 -203 -163 -144 -120 -94 -72 -84 -71 -39 -32 -40 -36 -14 -11 -13 -7 -12 -19 -32 -45 -55 -51 -71 -64 -59 -42 -43 -64 -38 -38 -28 -23 -15 -26 -28
-167 -140 0 0 0 -56 -87 -109 -121 -178 -194 -156 -157 -286 -220 -164 -136 -122 -96 -99 -150 -114 -58 -28 -33 -28 -32 -63 -41 -25 -38 -42 -55 -70 -80 -75 -87 -72 -58 -66 -89 0 -64 -60 -43 -36 -36 -23 -27
0 0 -92 0 0 -49 -109 -120 -132 -167 -118 -217 -204 -277 -272 -185 -177 -165 -129 -115 -112 -122 -110 -74 -49 -59 -71 -75 -75 -67 -79 -86 -114 -119 -104 -102 -84 -87 -90 0 -65 -113 -79 -52 -52 -42 -32 -28 -29
0 0 0 0 0 -167 -80 -134 -123 -178 -178 -266 -248 -258 -249 -209 -177 -147 -118 -105 -85 -130 -141 -135 -100 -100 -92 -114 -129 -113 -135 -124 -154 -146 -120 -121 -100 -78 -92 -57 -78 -83 -75 -66 -61 -56 -41 -36 -46
0 0 0 0 0 -130 -65 -116 -110 -154 -219 -270 -313 -257 -220 -209 -183 -151 -141 -115 -107 -132 -146 -154 -147 -148 -124 -154 -189 -155 -140 -160 -152 -118 -86 -86 -74 -64 -89 -146 -72 -56 -53 -55 -54 -41 -40 -121 -67
0 0 0 0 0 -168 -54 -55 -116 -137 -244 -257 -276 -243 -209 -193 -172 -176 -174 -155 -130 -126 -113 -162 -178 -166 -155 -187 -194 -188 -167 -136 -125 -84 -76 -69 -62 -57 -64 -79 -59 -45 -48 -40 -45 -44 -119 -52 -68
0 0 0 0 0 0 -124 -82 -112 -173 -215 -253 -292 -249 -217 -190 -193 -181 -177 -162 -137 -126 -130 -143 -134 -164 -156 -138 -117 -119 -135 -80 -70 -85 -67 -64 -56 -55 -58 -51 -46 -46 -44 -37 -40 -35 -36 -72 -70
0 0 0 0 0 0 0 0 -135 -204 -208 -247 -290 -250 -212 -188 -153 -173 -197 -191 -168 -152 -140 -132 -108 -126 -130 -97 -74 -76 -100 -69 -61 -64 -61 -57 -49 -49 -49 -39 -43 -66 -61 -60 -47 -48 -46 0 0
0 0 0 0 0 0 0 0 -157 -200 -262 -270 -282 -245 -210 -202 -209 -205 -206 -211 -172 -160 -146 -149 -121 -99 -114 -106 -72 -61 -45 -51 -82 -65 -49 -58 -51 -49 -51 -48 -59 -70 -56 -60 -63 -66 0 0 0
0 0 0 0 0 0 0 0 -108 -203 -245 -266 -294 -254 -228 -238 -219 -195 -201 -238 -202 -166 -152 -163 -147 -122 -97 -107 -80 -64 -39 -50 -53 -46 -40 -49 -44 -47 -49 -51 -54 -62 -54 -45 -88 -126 0 0 0
0 0 0 0 0 0 0 0 -152 -191 -232 -267 -288 -277 -250 -212 -223 -188 -198 -204 -252 -234 -213 -185 -174 -136 -132 -122 -86 -69 -76 -60 -44 -49 -50 -47 -40 -45 -48 -49 -48 -51 -42 -58 -114 -153 0 0 0
0 0 0 0 0 0 0 0 0 -167 -206 -237 -264 -269 -227 -239 -245 -234 -210 -246 -269 -264 -240 -242 -229 -173 -163 -159 -125 -122 -93 -93 -72 -64 -52 -49 -47 -45 -48 -56 -54 -62 -55 -66 -102 -175 0 0 0
0 0 0 0 0 0 0 0 0 -98 -179 -230 -255 -250 -280 -255 -269 -263 -235 -294 -323 -332 -293 -250 -239 -204 -187 -177 -165 -133 -119 -142 -138 -96 -71 -44 -42 -48 -61 -50 -49 -65 -80 -96 -118 -198 0 0 -120
0 0 0 0 0 0 0 0 0 0 0 -247 -250 -244 -302 -299 -308 -311 -330 -321 -334 -334 -335 -288 -272 -243 -217 -209 -182 -160 -140 -154 -117 -105 -67 -41 -40 -45 -59 -54 -54 -106 -130 -116 -145 -226 0 0 0
0 0 0 0 0 0 0 0 0 0 0 0 0 -195 -282 -339 -334 -311 -365 -382 -391 -398 -357 -316 -320 -285 -244 -242 -222 -193 -179 -156 -120 -147 -100 -53 -54 -51 -64 -70 -77 -109 -149 -177 -199 -270 0 0 0
0 0 0 0 0 0 0 0 0 0 0 0 0 0 0 -306 -371 -358 -375 -384 -390 -411 -415 -393 -388 -314 -297 -284 -239 -226 -201 -168 -133 -126 -119 -118 -86 -87 -74 -82 -90 -112 -163 -191 -269 0 0 0 0
0 0 0 0 0 0 0 0 0 0 0 0 0 0 0 0 -363 -397 -384 -421 -401 -416 -434 -438 -431 -374 -335 -317 -280 -257 -206 -194 -151 -141 -147 -156 -111 -84 -91 -86 -93 -126 -169 -234 -310 0 0 0 0
0 0 0 0 0 0 0 0 0 0 0 0 0 0 0 0 0 -360 -405 -439 -422 -420 -480 -475 -460 -449 -411 -360 -303 -262 -224 -201 -197 -178 -169 -157 -136 -87 -108 -104 -99 -136 -158 -237 -313 -94 0 0 0
0 0 0 0 0 0 0 0 0 0 0 0 0 0 0 0 0 -136 -382 -426 -471 -474 -514 -555 -492 -444 -482 -430 -353 -303 -258 -226 -218 -187 -186 -194 -184 -140 -136 -128 -127 -156 -180 -231 -297 -47 0 0 0
0 0 0 0 0 0 0 0 0 0 0 0 0 0 0 0 0 0 -330 -417 -458 -495 -536 -580 -537 -498 -458 -457 -409 -344 -296 -249 -232 -203 -208 -222 -206 -184 -167 -163 -145 -180 -187 -224 -281 -256 0 0 0
0 0 0 0 0 0 0 0 0 0 0 0 0 0 0 0 0 0 -321 -356 -436 -465 -552 -621 -575 -530 -494 -493 -416 -396 -347 -306 -251 -231 -238 -251 -226 -222 -185 -183 -179 -188 -190 -207 -240 -286 -327 0 0
Wind_Speed
21 17 17 16 11 13 14 14 13 12 8 13 24 19 16 9 19 19 32 33 28 37 35 35 32 28 25 27 29 26 25 24 23 25 26 27 26 27 26 25 24 24 20 12 11 9 9 11 9
22 16 11 12 10 12 13 13 11 15 11 16 7 16 8 1 20 25 33 33 32 37 36 34 30 28 28 28 26 24 23 24 26 27 27 27 27 26 25 25 25 25 24 18 10 10 9 9 13
12 21 10 12 11 10 10 13 9 19 22 21 15 10 16 16 22 34 32 34 31 33 35 32 29 29 29 27 25 23 24 26 26 27 27 27 26 26 26 25 25 24 23 22 19 8 6 13 17
23 21 21 12 10 12 15 22 23 22 19 9 16 13 15 19 27 32 33 35 31 32 33 30 30 29 28 26 25 24 25 25 25 27 27 27 26 25 25 24 23 22 20 18 17 17 12 12 19
19 19 19 12 13 15 17 18 23 20 17 17 18 16 21 26 17 27 33 32 28 29 31 30 30 29 29 27 26 27 26 26 27 27 26 25 24 24 23 22 21 20 19 19 19 18 14 15 21
15 14 15 11 17 19 19 12 19 10 14 15 16 20 21 18 25 28 32 29 26 27 30 30 29 29 29 29 29 28 28 27 26 25 24 24 22 21 21 20 19 18 17 18 19 17 19 24 23
14 13 14 17 14 11 19 18 20 17 15 17 22 14 19 26 22 25 27 26 25 26 29 30 30 30 31 30 30 29 28 27 25 24 23 22 21 20 18 18 17 17 17 17 18 19 21 23 23
18 15 15 14 12 10 13 22 20 18 18 23 21 19 22 31 23 21 27 25 24 26 27 30 31 31 32 31 30 29 27 26 25 23 22 21 20 19 18 17 16 16 17 17 17 17 17 16 18
17 18 17 16 20 19 23 21 20 20 20 22 22 15 25 30 21 18 20 23 23 24 27 30 31 32 32 31 30 29 28 26 25 23 22 21 19 18 17 16 16 16 17 17 16 15 14 15 17
5 16 15 18 6 17 21 20 21 19 21 17 14 18 26 26 24 21 21 24 24 26 30 31 32 33 32 31 30 28 27 27 25 24 23 21 19 18 17 16 16 16 17 17 15 14 13 13 16
20 25 23 21 18 19 19 20 23 20 19 19 21 23 27 26 22 21 20 22 24 28 30 33 33 34 33 32 30 29 28 27 26 25 23 21 19 18 17 17 17 15 16 16 15 13 13 14 14
29 29 26 24 20 18 22 25 21 22 17 19 22 25 27 24 24 23 20 22 25 29 33 33 34 35 33 32 31 29 28 27 26 25 24 21 20 19 18 16 18 17 16 15 14 13 12 14 14
24 29 28 27 24 15 26 25 23 24 16 22 21 24 26 24 24 23 23 25 28 32 34 34 35 35 33 33 31 29 28 27 27 25 24 22 21 19 17 18 17 16 16 14 13 11 10 13 12
11 18 30 28 24 11 23 27 22 25 20 22 22 23 25 27 28 27 28 30 32 33 34 34 35 35 32 33 31 29 28 27 26 25 23 21 20 20 18 17 16 15 14 13 12 12 12 12 12
27 28 29 28 14 10 20 14 23 23 21 21 22 22 26 30 29 31 30 32 33 34 34 34 34 34 32 31 30 29 29 28 26 25 23 21 20 19 17 16 14 14 13 12 12 13 13 13 15
31 23 28 22 13 8 16 16 23 21 21 19 22 22 26 30 32 32 31 32 34 34 35 34 33 33 32 31 30 30 29 28 27 25 23 21 21 19 17 15 13 12 12 11 11 12 14 14 16
19 13 17 30 15 5 12 4 14 26 23 19 22 23 26 30 34 33 32 33 34 34 34 33 32 33 32 31 29 29 27 26 26 25 23 22 20 19 17 15 12 11 10 11 12 14 15 15 16
14 11 4 24 21 8 8 14 14 28 22 20 22 25 25 29 34 35 34 34 33 33 33 31 31 31 31 30 29 28 27 24 23 23 22 22 20 18 16 13 10 10 11 12 13 14 14 15 16
24 20 27 32 18 20 20 9 16 27 26 20 23 27 27 28 34 35 34 34 32 31 32 33 32 30 28 29 28 28 28 27 22 22 21 21 21 18 14 10 8 9 10 10 12 13 14 15 16
34 28 39 39 12 20 14 19 19 26 32 25 24 30 30 30 29 34 35 35 34 33 33 31 32 30 30 28 27 27 26 26 24 22 21 18 18 17 13 9 8 9 10 11 11 13 16 14 14
25 15 27 20 26 26 23 27 9 23 39 27 27 29 32 31 30 31 33 33 34 34 32 31 31 30 30 28 25 22 22 25 22 21 19 17 17 16 12 10 10 10 11 11 11 12 14 12 13
31 21 31 31 26 30 16 25 10 13 39 34 30 34 34 34 31 31 34 32 31 32 31 31 28 28 29 28 25 25 22 21 23 19 17 16 17 16 13 12 11 11 13 12 13 13 14 16 13
39 33 31 31 30 33 35 27 14 11 27 41 36 36 36 34 33 31 33 34 34 32 32 31 30 28 29 28 27 24 19 17 13 15 15 12 15 13 13 14 12 13 12 13 13 13 15 16 16
28 29 30 28 31 48 38 17 35 33 25 38 38 35 36 36 34 34 30 28 29 29 29 28 27 28 27 28 29 26 20 14 13 14 16 14 11 11 14 15 15 13 13 13 13 13 14 16 16
16 15 27 33 35 43 20 35 27 34 29 33 34 33 34 35 31 34 30 28 24 23 24 24 24 26 25 26 26 25 22 17 16 15 13 12 11 11 14 16 16 15 16 13 13 13 13 14 14
17 18 16 23 31 41 30 43 44 28 36 29 40 38 30 28 29 31 33 28 27 25 22 22 22 23 24 25 25 22 19 17 15 14 12 11 12 16 13 19 18 17 14 11 11 10 10 11 11
22 22 24 32 29 35 33 39 47 45 43 39 42 42 37 28 30 33 32 29 30 29 26 26 25 27 27 27 24 20 18 16 15 14 14 11 13 14 14 18 20 17 12 11 11 11 10 10 9
25 21 22 21 22 29 37 42 41 27 46 44 36 16 27 24 28 35 32 31 34 31 31 28 27 29 29 27 25 21 18 17 14 14 15 12 13 16 11 17 21 15 12 11 9 8 8 8 8
31 29 27 24 24 32 45 45 34 27 36 35 38 26 16 36 41 38 35 31 31 28 25 27 27 28 30 28 23 20 18 18 16 18 14 16 17 17 15 20 21 17 14 12 12 10 6 5 4
32 36 34 35 23 38 48 42 20 15 29 42 39 31 29 38 37 40 39 26 22 27 25 25 27 28 30 27 25 22 20 18 19 20 16 16 20 14 14 18 20 17 16 14 13 11 9 8 6
Wind_Direction
100 79 70 174 293 275 242 225 231 30 315 196 129 105 76 330 172 109 129 148 114 149 147 130 120 109 100 98 100 93 88 82 77 80 80 82 79 85 78 72 66 62 39 4 359 347 338 354 342
105 59 318 283 303 355 246 238 257 214 51 57 3 73 296 3 140 108 129 126 120 136 145 125 115 109 107 104 97 91 86 84 88 87 88 86 87 84 79 77 78 77 70 37 347 340 331 325 2
32 98 299 320 248 329 271 235 277 77 109 156 67 340 64 80 96 123 142 124 119 123 131 121 115 112 112 105 99 92 91 93 90 91 93 96 93 91 97 91 94 100 107 113 128 196 250 353 22
102 87 69 336 243 227 200 118 99 109 149 302 61 16 36 83 106 160 121 126 119 122 126 119 120 118 116 109 104 99 97 94 91 101 102 105 109 108 106 106 109 115 123 136 136 137 167 348 23
114 102 94 197 203 198 169 186 123 100 111 81 89 61 88 119 91 112 122 122 117 121 125 124 123 122 122 118 113 113 111 105 113 115 116 119 118 118 118 122 124 124 124 128 130 134 132 4 31
319 150 135 263 74 150 163 199 164 347 56 66 67 86 99 99 112 118 125 123 119 121 129 128 128 129 129 127 128 130 132 133 134 137 135 130 134 134 130 127 128 132 134 128 125 140 27 71 65
250 198 166 170 41 13 156 172 152 64 60 81 106 73 98 121 116 118 123 122 123 126 131 135 136 138 139 140 144 146 147 148 150 148 145 146 147 149 152 147 138 135 139 139 133 130 107 89 78
217 228 208 205 45 339 49 124 136 77 75 101 105 112 125 139 123 119 124 123 124 132 135 143 145 148 150 152 154 154 154 155 157 158 157 155 156 154 156 157 151 145 144 144 140 134 127 131 109
262 253 208 199 116 183 137 116 97 105 96 124 137 103 132 133 125 123 121 125 128 134 142 148 152 155 154 155 160 161 165 165 166 166 165 167 168 165 165 160 156 156 150 151 148 148 140 126 116
25 272 255 160 318 117 129 126 114 80 102 166 96 94 128 133 133 133 132 136 138 141 149 153 158 160 160 164 166 165 169 172 171 170 170 169 167 171 166 166 161 156 147 143 152 147 143 132 117
255 193 217 225 241 132 128 132 140 107 112 124 118 123 137 137 139 139 137 139 142 147 153 160 162 166 162 170 169 171 174 173 174 172 170 163 166 160 166 167 170 168 164 153 155 148 135 119 124
230 216 216 233 258 140 149 149 150 136 123 119 126 127 139 142 145 145 142 143 144 152 161 161 165 168 166 175 172 172 174 173 174 172 174 170 170 161 157 169 166 157 158 154 165 157 146 109 112
182 209 250 233 238 160 167 159 158 163 124 115 117 129 142 145 147 148 146 148 150 158 164 165 167 171 168 174 176 175 176 176 176 174 173 173 171 164 160 157 152 146 148 149 157 162 132 107 112
252 183 239 279 244 149 150 170 158 172 130 128 123 134 145 150 154 152 154 157 160 160 164 166 170 171 168 174 178 179 180 179 180 177 176 173 173 169 156 153 151 146 141 145 136 120 105 95 105
262 220 249 267 328 138 152 156 173 159 142 137 139 138 151 159 157 161 160 162 163 165 165 164 167 170 169 174 177 180 182 183 182 179 177 176 171 168 159 151 151 132 136 113 87 81 75 73 59
239 267 223 265 310 332 154 169 176 150 146 145 148 145 156 167 166 166 164 165 166 164 167 164 166 169 171 173 176 180 184 189 188 185 181 174 171 166 157 148 139 113 91 76 75 57 57 56 41
274 190 187 227 305 355 169 187 155 157 158 153 156 155 161 170 178 175 171 168 168 168 167 167 169 172 173 176 178 179 180 187 192 188 185 177 165 159 151 150 132 95 79 70 56 40 43 42 26
256 265 199 188 259 119 163 282 161 166 162 160 159 163 164 173 178 179 174 171 170 170 170 169 170 172 174 177 178 178 178 179 175 175 175 174 166 159 154 145 109 77 67 61 48 51 51 40 43
262 269 200 208 278 271 179 177 173 176 177 164 166 170 172 176 179 180 178 175 171 172 173 174 174 173 170 173 176 179 181 182 171 173 173 172 167 163 154 139 104 84 87 88 73 62 54 52 41
253 261 216 236 286 282 270 201 188 180 184 179 172 176 179 180 175 183 183 182 179 176 177 176 178 175 176 175 177 181 182 185 183 181 177 169 169 167 159 141 117 110 100 94 83 66 38 43 39
256 226 221 259 269 276 293 287 170 186 209 184 183 183 185 181 177 178 180 181 183 183 181 180 180 180 180 179 176 173 178 188 183 182 178 171 168 168 157 144 128 118 115 117 102 89 63 69 57
201 255 257 262 271 268 302 290 182 195 197 192 189 192 190 189 184 181 183 180 181 183 183 184 183 182 183 180 179 181 181 181 185 179 174 171 174 171 161 150 138 131 130 126 124 99 69 61 79
216 253 259 262 268 270 266 281 291 201 189 205 198 197 197 192 188 184 184 184 184 183 184 184 184 183 184 184 185 184 183 180 171 172 170 167 167 165 166 159 145 138 126 126 117 99 89 85 89
250 259 264 268 267 254 217 271 214 200 189 203 202 199 198 197 193 193 188 184 185 183 183 184 184 186 185 186 189 188 187 182 180 177 180 175 168 169 169 164 155 148 139 127 117 110 98 105 111
243 235 259 260 256 256 258 263 207 230 196 198 196 197 196 195 193 195 192 191 189 188 185 184 186 189 188 190 190 191 190 189 188 186 183 182 178 170 166 162 158 152 152 136 126 122 111 110 107
234 213 235 253 259 261 264 254 232 202 216 197 203 202 196 194 196 197 198 196 195 192 191 189 189 190 189 191 194 194 195 193 193 193 194 190 185 177 166 167 164 159 151 138 131 120 110 105 104
250 221 209 260 272 270 267 262 249 247 235 244 224 213 202 199 198 199 198 197 197 193 192 191 192 192 191 193 194 200 202 199 198 199 197 198 189 178 170 170 170 165 155 149 144 143 136 124 117
242 252 251 256 225 251 265 257 251 257 233 233 254 254 208 203 202 203 201 199 196 194 193 192 195 195 193 193 192 195 204 206 210 203 200 205 194 182 182 174 174 168 163 159 152 148 141 135 125
246 238 253 254 253 212 235 234 264 258 252 252 251 266 211 219 214 208 203 200 196 194 194 198 199 197 197 195 194 194 197 201 206 200 213 201 189 186 185 179 178 175 171 169 169 168 155 155 139
248 244 244 250 224 257 237 222 274 196 243 250 255 267 272 229 220 211 204 199 198 195 195 198 199 199 198 197 197 197 197 198 199 199 209 203 188 199 190 180 180 180 180 179 181 183 179 183 184